www.pogodaiklimat.ru

Погода и климат >> Архив погоды >> Россия >> Нижегородская область >> Дальнее Константиново


ПОГОДА в Дальнем Константиново

  • Прогноз погоды в Дальнем Константиново
  • Монитор погоды в Дальнем Константиново
  • Климат города

АРХИВ ПОГОДЫ в Дальнем Константиново

Время (UTC), дата Ветер
(напр.,м/с)
 
Видим.   Явления Облачность Т
(С)
Тd
(С)
f
(%)
Тe
(С)
Тes
(С)
Комфортность P
(гПа)
Po
(гПа)
Тmin
(С)
Tmax
(С)
R
(мм)
R24
(мм)
S
(см)
00 16.04 З 1-1
{3}
4000 м ясно +1.3 -3.9 68 -0 -0 1019.0 1002.3
03 16.04 ЮЗ 1-2
{2}
10 км ясно +0.9 -3.0 75 -1 -0 1019.5 1002.7 0.0 0
06 16.04 СЗ 1-2
{3}
10 км ясно +12.3 -3.0 34 +13 +21 1018.9 1002.7
09 16.04 С 3-5
{7}
10 км ясно +15.6 -3.8 26 +15 +25 1018.1 1002.2
12 16.04 СЗ 3-6
{8}
10 км ясно +16.5 -5.4 22 +16 +22 1017.4 1001.5
15 16.04 СЗ 2-4
{7}
10 км ясно +15.6 -5.0 24 +16 +16 1016.2 1000.3 +16.6
18 16.04 ЮЗ 1-2
{4}
4000 м ясно +8.6 -2.7 45 +9 +9 1016.8 1000.6
21 16.04 ЮЗ 1-2
{2}
4000 м ясно +4.1 -2.7 61 +3 +3 1017.0 1000.4
00 17.04 В 1-1
{3}
4000 м ясно +2.0 -1.3 79 0 0 1017.1 1000.4
03 17.04 штиль 0
{1}
10 км ясно +2.2 -2.4 72 +1 +2 1017.1 1000.4 +2.0
06 17.04 штиль 0
{1}
10 км ясно +15.7 -1.9 30 +16 +25 1016.3 1000.4
09 17.04 ЮЗ 1-5
{5}
10 км 3/3 600 м
[Cu hum]
+19.0 -3.8 21 +20 +29 1015.8 1000.1
12 17.04 З 3-5
{7}
10 км 3/3 600 м
[Cu hum]
+19.7 -2.5 22 +20 +24 1014.9 999.2
15 17.04 С 2-3
{5}
10 км 8/0
[Ci ing]
+18.9 -1.2 26 +20 +20 1014.3 998.6 +20.7
18 17.04 штиль 0
{4}
4000 м 8/0
[Ci sp]
+11.1 -0.2 46 +11 +11 1015.2 999.1
21 17.04 штиль 0
{2}
4000 м ясно +5.6 +0.1 68 +5 +5 1015.4 999.0
00 18.04 штиль 0
{2}
4000 м ясно +4.0 -0.9 70 +3 +3 1015.3 998.7
03 18.04 В 1-1
{1}
10 км 6/0
[Cs]
+3.7 -0.3 75 +2 +3 1014.4 997.8 +2.4
06 18.04 В 1-3
{3}
10 км 10/0
[As op]
+7.9 +1.3 63 +7 +9 1013.4 997.2
09 18.04 В 1-2
{3}
10 км 10/0
[As trans]
+11.4 +2.1 53 +12 +17 1012.7 996.7
12 18.04 В 2-5
{5}
10 км 10/0
[As trans]
+12.7 +5.5 62 +12 +15 1011.4 995.5
15 18.04 В 2-4
{7}
10 км 10/0
[As op]
+9.5 +5.3 75 +8 +8 1010.0 993.9 +12.9
18 18.04 СВ 1-2
{5}
4000 м 10/10 600 м
[Sc]
+8.2 +4.6 78 +8 +8 1008.3 992.3
21 18.04 СВ 1-3
{3}
4000 м 10/10 600 м
[Sc]
+8.3 +5.0 80 +8 +8 1005.5 989.5
00 19.04 СВ 2-4
{6}
4000 м слабый дождь 10/0 600 м
[As op]
+6.2 +5.5 95 +4 +4 1003.1 987.0
03 19.04 СВ 4-6
{7}
10 км слабый дождь 10/0 600 м
[As op]
+5.1 +4.6 97 +1 +1 1001.2 985.0 +5.1 6
06 19.04 СВ 3-6
{7}
10 км слабый дождь 10/0 600 м
[As op]
+5.5 +5.0 97 +2 +3 1000.8 984.6 +4.9
09 19.04 СВ 3-6
{7}
10 км слабый дождь 10/0 600 м
[As op]
+6.4 +6.0 97 +3 +5 1000.7 984.6
12 19.04 СВ 4-6
{6}
10 км в посл. час дождь 10/10 600 м
[Sc]
+6.2 +5.8 97 +2 +2 1001.5 985.4
15 19.04 СВ 3-5
{7}
10 км слабый дождь 10/0 600 м
[As op]
+6.2 +5.8 97 +3 +3 1002.0 985.9 +6.4 6
18 19.04 СВ 4-6
{6}
4000 м слабый дождь 10/0 600 м
[As op]
+6.5 +6.1 97 +3 +3 1003.3 987.2
21 19.04 С 4-6
{7}
4000 м {дождь} 10/10 600 м
[Sc]
+6.6 +5.7 94 +3 +3 1003.9 987.7
00 20.04 С 4-5
{7}
4000 м {дождь} 8/0
[Ac trans]
+5.8 +4.4 91 +2 +2 1004.7 988.4
03 20.04 СВ 4-6
{8}
10 км ясно +3.6 -0.2 76 -1 -0 1006.7 990.3 +3.1 6
06 20.04 С 5-9
{10}
10 км 4/0
[Ci fib]
+7.5 -0.2 58 +4 +7 1008.5 992.3
09 20.04 С 5-9
{11}
10 км 8/8 1000 м
[Cu med, cong]
+9.6 -0.9 48 +7 +8 1009.4 993.3
12 20.04 С 6-9
{12}
10 км 1/1 600 м
[Cu hum]
+9.7 -5.4 34 +7 +9 1010.0 993.9
15 20.04 С 5-7
{10}
10 км 1/0
[Ci fib]
+8.5 -7.4 32 +6 +6 1010.5 994.3 +10.2
18 20.04 С 3-4
{7}
4000 м ясно +3.9 -5.3 51 +1 +1 1011.1 994.6
21 20.04 ЮЗ 2-2
{4}
4000 м ясно -0.3 -3.7 78 -4 -4 1011.1 994.4
00 21.04 ЮЗ 2-2
{3}
4000 м ясно -1.7 -4.4 82 -6 -6 1010.7 993.9
03 21.04 ЮЗ 1-2
{3}
10 км 9/0
[Cs]
+0.1 -5.4 66 -1 -1 1008.9 992.3 -2.7
06 21.04 Ю 2-3
{5}
10 км 10/0
[As trans]
+4.7 -4.9 50 +3 +6 1006.5 990.2
09 21.04 Ю 5-9
{11}
10 км слабый дождь 10/0 600 м
[As op]
+5.1 +1.3 76 +1 +2 1002.4 986.2
12 21.04 Ю 4-9
{10}
10 км в посл. час дождь 10/10 600 м
[Sc]
+6.2 +4.1 86 +2 +2 996.1 980.0
15 21.04 ЮЗ 5-12
{12}
10 км 8/0
[Ci ing]
+10.2 +5.5 73 +7 +8 989.9 974.2 +10.1 1
18 21.04 Ю 5-12
{12}
4000 м в посл. час дождь 10/10 600 м
[Sc]
+12.5 +5.9 64 +10 +10 982.6 967.2
21 21.04 З 4-8
{12}
4000 м слабый ливневой дождь 10/10 600 м
[Cb cap]
+9.2 +8.4 95 +6 +6 981.6 966.0
00 22.04 З 4-7
{9}
4000 м {ливн. осадки} 10/10 1000 м
[Sc]
+8.6 +6.7 88 +5 +5 980.5 964.9
03 22.04 З 5-11
{11}
10 км слабый ливневой дождь 10/10 600 м
[Cb cap]
+4.7 +3.5 92 -0 -0 981.0 965.1 +4.7 6
06 22.04 СЗ 7-12
{12}
10 км слабый дождь {снег, ливн. осадки} 10/0 600 м
[As op]
+1.4 -0.5 87 -5 -5 984.7 968.5 +0.8
09 22.04 СЗ 7-13
{13}
10 км слабый снег {дождь} 10/0 600 м
[As op]
+0.8 -2.1 81 -6 -5 988.6 972.4
12 22.04 СЗ 8-14
{16}
10 км {снег, дождь} 10/10 600 м
[Sc]
+0.9 -2.3 79 -6 -6 993.0 976.7
15 22.04 С 8-12
{16}
4000 м слабый снег 10/0 600 м
[As op]
+0.2 -2.2 84 -7 -7 996.2 979.7 +4.7 3
18 22.04 С 6-9
{14}
4000 м слабый снег 10/0 600 м
[As op]
-0.6 -3.4 81 -7 -7 999.3 982.7
21 22.04 С 6-10
{13}
4000 м {снег} 8/8 600 м
[Sc]
-0.9 -4.4 77 -8 -8 1000.5 983.9

 

Местоположение метеостанции Дальнее Константиново (Нижегородская область, Россия): широта 55.80 долгота 44.08 высота над уровнем моря 133 м.

В архиве по умолчанию представлена погода в Дальнем Константиново за последнюю неделю. Архивные данные за месяц целиком и за предыдущие месяцы, начиная с января 2011 года, Вы можете получить, выбрав интересующий диапазон дат из раскрывающегося списка и нажав кнопку "Ввод!".


*Определитесь, кто Вы:
робот инопланетянин человек

Внимание! Время в таблицах - всемирное. Для получения местного времени необходимо прибавить поправку, которая в Дальнем Константиново равна 3 ч.

Смотрите также архив погоды в соседних городах и на ближайших метеорологических станциях:

Погода в Нижнем Новгороде аэропорт (Нижегородская область, Россия) (51 км)
Погода в Арзамасе (Нижегородская область, Россия) (51 км)
Погода в Нижнем Новгороде (Нижегородская область, Россия) (53 км)
Погода в Лысково (Нижегородская область, Россия) (64 км)
Погода в Павлово (Нижегородская область, Россия) (68 км)
Погода в Лукоянове (Нижегородская область, Россия) (90 км)
Погода в Сергаче (Нижегородская область, Россия) (94 км)
Погода в Волжской ГМО (Нижегородская область, Россия) (106 км)
Погода в Семенове (Нижегородская область, Россия) (107 км)
Погода в Большом Болдино (Нижегородская область, Россия) (117 км)

Пояснения к столбцам:

Ветер - указаны скорость ветра в м/с - средняя за 10 мин, порывы в срок и между сроками (в фигурных скобках) и направление, откуда дует ветер: С - северный, СВ - северо-восточный, В - восточный, ЮВ - юго-восточный, Ю - южный, ЮЗ - юго-западный, З - западный, СЗ - северо-западный.
Видимость - горизонтальная дальность видимости в метрах или километрах. При видимости от 1 до 10 км при отсутствии осадков обычно наблюдается дымка, при ухудшении видимости до 1 км и менее - туман. В сухую погоду видимость может ухудшаться дымом, пылью или мглою.
Явления - указаны атмосферные явления, наблюдавшиеся в срок или в последний час перед сроком; фигурными скобками обозначены явления, наблюдавшиеся между сроками (за 1-3 часа до срока); квадратными скобками обозначены град или гололедные отложения с указанием их диаметра в мм.
Облачность - указаны через наклонную черту общая и нижняя облачность в баллах и высота нижней границы облаков в метрах; квадратными скобками обозначены формы облаков: Ci - перистые, Cs - перисто-слоистые, Cc - перисто-кучевые, Ac - высококучевые, As - высокослоистые, Sc - слоисто-кучевые, Ns - слоисто-дождевые, Cu - кучевые, Cb - кучево-дождевые. Подробнее классификацию облаков см. в Атласе облаков (PDF).
T - Температура воздуха - температура, измеренная на высоте 2 м над землей.
Td - Температура точки росы - температура, при понижении до которой содержащийся в воздухе водяной пар достигнет насыщения.
f - Относительная влажность воздуха - влажноcть воздуха, измеренная на высоте 2 м над землей.
Te - Эффективная температура - температура, которую ощущает одетый по сезону человек в тени. Характеристика душности погоды. При расчете учитывается влияние влажности воздуха и скорости ветра на теплоощущения человека.
Tes - Эффективная температура на солнце - температура, которую ощущает человек, с поправкой на солнечный нагрев. Характеристика знойности погоды. Зависит от высоты солнца над горизонтом, облачности и скорости ветра. Ночью, в пасмурную погоду, а также при ветре 12 м/с и более поправка равна нулю.
P - Атмосферное давление - приведенное к уровню моря атмосферное давление.
Po - Атмосферное давление - измеренное на уровне метеостанции атмосферное давление.
Tmin - Минимальная температура - минимум температуры воздуха на высоте 2 м над землей.
Tmax - Максимальная температура - максимум температуры воздуха на высоте 2 м над землей.
R - Количество осадков - Количество выпавших осадков за период времени, мм. При наведении курсора мыши на число - период времени, за который выпало указанное количество осадков.
R24 - Количество осадков - Количество выпавших осадков за 24 часа, мм.
S - Снежный покров - Высота снежного покрова, см. При наведении курсора мыши на число - состояние снежного покрова и степень покрытия местности в баллах.